This is the latest recevied weather packets stored in our database for station/object SQ9CIE-4. If no packets are shown the sender has not sent any weather packets the latest 1 day(s).
| Time | Temp. | Humidity | Pressure | Rain* | Wind** | Luminosity | Snow |
|---|---|---|---|---|---|---|---|
| 1777998358 | 25° C | 21% | 1004.9 hPa | 0 mm | 5.36 m/s, 205° | 101 W/m² | - |
| 1777998058 | 25° C | 20% | 1004.8 hPa | 0 mm | 7.6 m/s, 216° | 110 W/m² | - |
| 1777997758 | 25° C | 20% | 1004.9 hPa | 0 mm | 7.6 m/s, 255° | 128 W/m² | - |
| 1777997458 | 26.11° C | 18% | 1004.8 hPa | 0 mm | 8.05 m/s, 200° | 141 W/m² | - |
| 1777997158 | 26.11° C | 20% | 1004.7 hPa | 0 mm | 3.58 m/s, 218° | 152 W/m² | - |
| 1777996858 | 26.11° C | 19% | 1004.7 hPa | 0 mm | 6.26 m/s, 198° | 164 W/m² | - |
| 1777996558 | 26.11° C | 20% | 1004.8 hPa | 0 mm | 6.71 m/s, 213° | 182 W/m² | - |
| 1777996258 | 26.11° C | 19% | 1004.8 hPa | 0 mm | 6.26 m/s, 214° | 196 W/m² | - |
| 1777995958 | 26.11° C | 19% | 1004.6 hPa | 0 mm | 6.26 m/s, 232° | 218 W/m² | - |
| 1777995658 | 26.11° C | 19% | 1004.7 hPa | 0 mm | 8.49 m/s, 230° | 234 W/m² | - |
| 1777995358 | 26.11° C | 21% | 1004.7 hPa | 0 mm | 7.6 m/s, 212° | 251 W/m² | - |
| 1777995058 | 26.11° C | 21% | 1004.6 hPa | 0 mm | 6.71 m/s, 237° | 259 W/m² | - |
| 1777994758 | 26.11° C | 23% | 1004.9 hPa | 0 mm | 4.47 m/s, 209° | 277 W/m² | - |
| 1777994458 | 26.11° C | 22% | 1004.7 hPa | 0 mm | 7.6 m/s, 187° | 289 W/m² | - |
| 1777994158 | 26.11° C | 22% | 1004.8 hPa | 0 mm | 3.13 m/s, 212° | 300 W/m² | - |
| 1777993858 | 26.11° C | 22% | 1004.9 hPa | 0 mm | 4.02 m/s, 206° | 275 W/m² | - |
| 1777993558 | 26.11° C | 22% | 1004.8 hPa | 0 mm | 5.36 m/s, 201° | 323 W/m² | - |
| 1777993258 | 26.11° C | 23% | 1004.8 hPa | 0 mm | 5.36 m/s, 180° | 313 W/m² | - |
| 1777992958 | 26.11° C | 23% | 1004.9 hPa | 0 mm | 5.36 m/s, 160° | 320 W/m² | - |
| 1777992658 | 26.11° C | 23% | 1005.2 hPa | 0 mm | 4.92 m/s, 141° | 322 W/m² | - |
| 1777992358 | 26.11° C | 23% | 1005.1 hPa | 0 mm | 8.49 m/s, 188° | 394 W/m² | - |
| 1777992058 | 26.11° C | 24% | 1005.2 hPa | 0 mm | 8.49 m/s, 174° | 370 W/m² | - |
| 1777991758 | 26.11° C | 25% | 1005 hPa | 0 mm | 4.47 m/s, 230° | 436 W/m² | - |
| 1777991458 | 26.11° C | 23% | 1005.3 hPa | 0 mm | 5.36 m/s, 176° | 437 W/m² | - |
| 1777991158 | 26.11° C | 23% | 1005.3 hPa | 0 mm | 7.15 m/s, 197° | 359 W/m² | - |
* Rain latest hour (hover to see other rain measurements)
** Current wind speed in m/s (hover to see current wind gust speed)